[[{"header":{"parameterUnit":"m.s-1","parameterCategory":1,"la1":30.2991,"la2":30.254,"lo1":-89.0895,"lo2":-89.0444,"dy":0.0017,"dx":0.0017,"nx":28,"ny":28,"refTime":"2025-11-15T09:00:00:Z","depth":0,"parameterNumber":2,"parameterNumberName":"U-component_of_WINDS"},"data":[0,0,0,0,0,0,0,0,0,0,0,0,0,0,0,0,0,0,0,0,0,0,0,0,0,0,0,0,0,0,0,0,0,0,0,0,0,0,0,0,0,0,0,0,0,0,0,0,0,0,0,0,0,0,0,0,0,0,-0.7269,-0.7269,0,-0.7266,-0.7266,-0.7266,-0.7213,-0.7212,-0.721,-0.7209,-0.7206,-0.7208,-0.7209,0,0,0,0,0,0,0,0,0,0,0,0,0,-0.723,-0.7231,-0.7269,-0.7269,-0.7269,-0.7266,-0.7266,-0.7266,-0.7213,-0.7212,-0.721,-0.7208,-0.7206,-0.7207,-0.7209,0,0,0,0,0,0,0,0,0,0,0,0,0,-0.7239,-0.7231,-0.7269,-0.7242,-0.724,-0.7266,-0.7266,-0.7266,-0.7214,-0.7212,-0.7209,-0.7208,-0.7205,-0.7207,-0.7209,-0.7261,0,0,-0.7214,-0.7215,0,0,0,0,0,0,0,0,-0.7238,-0.724,-0.7246,-0.7244,-0.7242,-0.7238,-0.7251,-0.7264,-0.7214,-0.7224,-0.7209,-0.7207,-0.7219,-0.7219,-0.7223,-0.7261,-0.726,-0.7215,-0.7216,-0.7216,-0.7217,0,0,0,0,0,0,0,-0.7238,-0.724,-0.7268,-0.7247,-0.7244,-0.7231,-0.723,-0.7253,-0.7233,-0.7223,-0.7219,-0.7219,-0.7217,-0.7221,-0.7223,-0.726,-0.7215,-0.7216,-0.7217,-0.7218,-0.7339,-0.7341,0,0,0,0,0,0,-0.7241,-0.724,-0.7268,-0.7268,-0.7235,-0.7233,-0.7232,-0.7241,-0.7232,-0.7229,-0.7221,-0.7217,-0.7219,-0.722,-0.7222,-0.7281,-0.7216,-0.7218,-0.7219,-0.7337,-0.734,-0.7342,0,0,0,0,0,0,-0.724,-0.7244,-0.7268,-0.7253,-0.7255,-0.7236,-0.7247,-0.7242,-0.7247,-0.7231,-0.7227,-0.7229,-0.7218,-0.722,-0.7251,-0.728,-0.7219,-0.7221,-0.7334,-0.7338,-0.7341,-0.74,0,0,0,0,0,0,-0.7239,-0.7244,-0.7263,-0.7254,-0.7256,-0.7297,-0.7248,-0.7244,-0.725,-0.7244,-0.7238,-0.7235,-0.7216,-0.7249,-0.7253,-0.7281,-0.7222,-0.7332,-0.7336,-0.734,-0.7395,-0.7404,-0.7413,0,0,0,0,0,-0.7238,-0.728,-0.7265,-0.7268,-0.728,-0.7299,-0.73,-0.7278,-0.7252,-0.7271,-0.7261,-0.7235,-0.7277,-0.7252,-0.7257,-0.7286,-0.733,-0.7335,-0.7339,-0.7391,-0.7403,-0.7412,0,0,0,0,0,0,-0.7294,-0.7279,-0.7261,-0.7301,-0.7302,-0.729,-0.7313,-0.7291,-0.7299,-0.7294,-0.7267,-0.7266,-0.7301,-0.7297,-0.727,-0.7335,-0.7299,-0.7304,-0.7336,-0.7347,-0.7356,-0.7355,-0.7223,0,0,0,0,0,-0.7311,-0.7328,-0.7314,-0.7351,-0.7352,-0.7333,-0.7341,-0.7323,-0.7323,-0.7323,-0.7315,-0.7316,-0.7329,-0.7338,-0.7349,-0.7395,-0.7392,-0.7417,-0.7426,-0.7433,-0.7438,-0.7461,-0.7471,-0.7358,-0.7358,-0.7358,0,0,-0.7347,-0.734,-0.7353,-0.7362,-0.736,-0.7378,-0.7333,-0.7354,-0.7367,-0.7326,-0.7355,-0.7349,-0.7348,-0.7387,-0.7403,-0.7384,-0.7469,-0.7439,-0.7445,-0.7446,-0.7467,-0.7478,-0.7487,-0.7361,-0.736,-0.736,0,0,-0.742,-0.7417,-0.7447,-0.7446,-0.7444,-0.7431,-0.7439,-0.743,-0.7425,-0.7453,-0.7423,-0.7438,-0.7461,-0.7461,-0.7465,-0.7538,-0.7514,-0.7543,-0.7588,-0.761,-0.7619,-0.7627,-0.7652,-0.7661,-0.7548,-0.7548,-0.7548,0,-0.7464,-0.7489,-0.7465,-0.7488,-0.7493,-0.7456,-0.7486,-0.7487,-0.7489,-0.7493,-0.7472,-0.75,-0.7497,-0.7534,-0.7552,-0.7557,-0.7564,-0.7543,-0.762,-0.7628,-0.7634,-0.7658,-0.7667,-0.7552,-0.7551,-0.7551,-0.7551,0,-0.7543,-0.7561,-0.7586,-0.7588,-0.7595,-0.7622,-0.7602,-0.7612,-0.7595,-0.7584,-0.7614,-0.7609,-0.7618,-0.7626,-0.7609,-0.7661,-0.7649,-0.7625,-0.7587,-0.7649,-0.7671,-0.7679,-0.7557,-0.7555,-0.7554,-0.7553,0,0,-0.765,-0.7639,-0.7648,-0.7648,-0.7644,-0.7657,-0.7682,-0.769,-0.77,-0.7703,-0.7722,-0.7743,-0.772,-0.7724,-0.7707,-0.7727,-0.7784,-0.77,-0.7699,-0.7714,-0.7839,-0.7856,-0.7867,-0.7769,-0.777,-0.7771,-0.7839,0,-0.772,-0.776,-0.774,-0.7783,-0.7799,-0.7765,-0.7786,-0.7786,-0.7777,-0.7789,-0.7779,-0.7794,-0.7763,-0.7765,-0.7783,-0.7773,-0.7808,-0.7768,-0.7786,-0.7786,-0.7785,-0.7879,-0.7897,-0.7961,-0.7847,-0.7849,-0.785,0,-0.7806,-0.7811,-0.7856,-0.7848,-0.7854,-0.7873,-0.7879,-0.7892,-0.789,-0.7882,-0.7886,-0.7865,-0.7888,-0.7852,-0.7884,-0.7857,-0.7863,-0.786,-0.7862,-0.7861,-0.7821,-0.7879,-0.798,-0.7989,-0.7863,-0.7862,-0.7861,0,-0.7878,-0.7897,-0.7926,-0.7927,-0.7918,-0.7933,-0.793,-0.7926,-0.7933,-0.7938,-0.7942,-0.7951,-0.7955,-0.7962,-0.7944,-0.792,-0.7978,-0.794,-0.7971,-0.7972,-0.7984,-0.7983,-0.8086,-0.7991,-0.799,-0.799,-0.799,0,-0.7956,-0.7985,-0.7958,-0.7975,-0.8006,-0.7982,-0.8013,-0.8007,-0.8004,-0.802,-0.7992,-0.8007,-0.7983,-0.7996,-0.7982,-0.8009,-0.8012,-0.8006,-0.8001,-0.8007,-0.8008,-0.801,-0.8004,-0.7993,-0.7992,-0.7992,-0.7991,0,-0.8041,-0.8024,-0.8053,-0.8043,-0.8041,-0.8064,-0.8054,-0.807,-0.8059,-0.808,-0.8083,-0.8066,-0.808,-0.8063,-0.8075,-0.8066,-0.8103,-0.8093,-0.8103,-0.81,-0.8131,-0.8128,-0.8237,-0.825,-0.8148,-0.8149,-0.815,0,-0.8091,-0.8112,-0.8104,-0.8112,-0.811,-0.8124,-0.8131,-0.8108,-0.8116,-0.8116,-0.8132,-0.8143,-0.8151,-0.8175,-0.8164,-0.8173,-0.8162,-0.82,-0.8163,-0.8168,-0.8161,-0.8159,-0.8161,-0.8207,-0.8208,-0.8209,-0.821,0,-0.8182,-0.8173,-0.8182,-0.8189,-0.8197,-0.8202,-0.8204,-0.8213,-0.819,-0.82,-0.8213,-0.8219,-0.8232,-0.8243,-0.825,-0.8247,-0.8224,-0.8222,-0.8229,-0.8235,-0.8239,-0.8236,-0.8122,-0.8219,-0.8218,-0.8217,-0.8217,-0.8217,-0.825,-0.8267,-0.8263,-0.8275,-0.8274,-0.8277,-0.8291,-0.8282,-0.8292,-0.83,-0.8287,-0.8304,-0.8302,-0.8308,-0.8308,-0.8321,-0.8304,-0.8315,-0.8318,-0.8321,-0.8325,-0.8238,-0.8322,-0.8322,-0.8322,-0.8321,-0.8321,0,-0.8338,-0.8334,-0.8345,-0.8349,-0.8358,-0.8336,-0.8338,-0.8347,-0.8362,-0.8362,-0.837,-0.8386,-0.8397,-0.8387,-0.8396,-0.8408,-0.8398,-0.8411,-0.8409,-0.8409,-0.8339,-0.8331,-0.8419,-0.8419,-0.8419,-0.8419,-0.8419,-0.8419,-0.8385,-0.8411,-0.8401,-0.8427,-0.8423,-0.8439,-0.8441,-0.8444,-0.8443,-0.8462,-0.847,-0.8464,-0.846,-0.8468,-0.8477,-0.8474,-0.8478,-0.8495,-0.8488,-0.8423,-0.8414,-0.8404,-0.8397,-0.8496,-0.8496,-0.8556,-0.8556,-0.8557]},{"header":{"parameterUnit":"m.s-1","parameterCategory":1,"la1":30.2991,"la2":30.254,"lo1":-89.0895,"lo2":-89.0444,"dy":0.0017,"dx":0.0017,"nx":28,"ny":28,"refTime":"2025-11-15T09:00:00:Z","depth":0,"parameterNumber":3,"parameterNumberName":"V-component_of_WINDS"},"data":[0,0,0,0,0,0,0,0,0,0,0,0,0,0,0,0,0,0,0,0,0,0,0,0,0,0,0,0,0,0,0,0,0,0,0,0,0,0,0,0,0,0,0,0,0,0,0,0,0,0,0,0,0,0,0,0,0,0,2.4279,2.4278,0,2.4266,2.4265,2.4265,2.43,2.4301,2.4303,2.4304,2.4286,2.4284,2.4283,0,0,0,0,0,0,0,0,0,0,0,0,0,2.4331,2.433,2.4279,2.4278,2.4278,2.4266,2.4265,2.4265,2.43,2.4301,2.4303,2.4304,2.4286,2.4284,2.4283,0,0,0,0,0,0,0,0,0,0,0,0,0,2.4312,2.433,2.4279,2.4294,2.4296,2.4266,2.4265,2.4265,2.43,2.4302,2.4303,2.4305,2.4287,2.4285,2.4282,2.4235,0,0,2.4276,2.4275,0,0,0,0,0,0,0,0,2.4313,2.431,2.4292,2.4293,2.4295,2.4286,2.4278,2.4255,2.4299,2.4298,2.4304,2.4306,2.4284,2.4282,2.4276,2.4235,2.4234,2.4275,2.4274,2.4273,2.4272,0,0,0,0,0,0,0,2.4314,2.4311,2.4273,2.4292,2.4293,2.4301,2.43,2.4273,2.4282,2.4298,2.4301,2.4299,2.4285,2.4278,2.4276,2.4234,2.4275,2.4273,2.4272,2.4271,2.4155,2.4153,0,0,0,0,0,0,2.4314,2.4312,2.4274,2.4273,2.4308,2.4299,2.4298,2.4287,2.4282,2.4283,2.4298,2.4301,2.4281,2.4279,2.4276,2.4222,2.4273,2.4271,2.427,2.4157,2.4155,2.4153,0,0,0,0,0,0,2.4315,2.431,2.4274,2.4293,2.4289,2.4296,2.4284,2.4286,2.4279,2.4282,2.4283,2.4289,2.4283,2.4279,2.4246,2.4222,2.427,2.4268,2.4159,2.4156,2.4154,2.4113,0,0,0,0,0,0,2.4317,2.4311,2.4293,2.4292,2.4288,2.4245,2.4282,2.4285,2.4276,2.428,2.4274,2.4275,2.4284,2.4249,2.4244,2.4219,2.4266,2.4161,2.4158,2.4155,2.4116,2.4109,2.4103,0,0,0,0,0,2.4318,2.4281,2.4292,2.4287,2.4267,2.4244,2.4241,2.4253,2.4274,2.4256,2.4258,2.4275,2.4225,2.4246,2.424,2.4214,2.4163,2.4159,2.4155,2.4119,2.411,2.4103,0,0,0,0,0,0,2.4276,2.4281,2.4293,2.4255,2.4249,2.425,2.4228,2.4243,2.423,2.4234,2.4248,2.4247,2.4212,2.421,2.4232,2.417,2.4197,2.4192,2.4172,2.4164,2.4157,2.4158,2.4264,0,0,0,0,0,2.4262,2.4245,2.4249,2.4215,2.4211,2.422,2.4211,2.4221,2.4215,2.4212,2.4212,2.4204,2.4187,2.4175,2.416,2.4116,2.4116,2.4096,2.4089,2.4084,2.4079,2.4058,2.4049,2.414,2.414,2.414,0,0,2.4233,2.4234,2.4221,2.4206,2.4203,2.4184,2.4218,2.4195,2.4182,2.4208,2.4178,2.4178,2.417,2.4133,2.4116,2.413,2.4054,2.4079,2.4074,2.4073,2.4053,2.4044,2.4037,2.4137,2.4138,2.4138,0,0,2.4171,2.417,2.4142,2.4139,2.4134,2.4141,2.4134,2.4134,2.4135,2.4106,2.4126,2.4109,2.4079,2.4073,2.4067,2.4006,2.4021,2.4,2.3965,2.3944,2.3937,2.393,2.391,2.3902,2.3995,2.3995,2.3995,0,2.4135,2.4109,2.4125,2.4102,2.4095,2.4121,2.4093,2.4089,2.4078,2.4073,2.4089,2.4054,2.405,2.4013,2.3998,2.3992,2.3985,2.4,2.3937,2.3931,2.3925,2.3905,2.3897,2.3993,2.3993,2.3993,2.3994,0,2.4066,2.4047,2.4025,2.4017,2.4008,2.3982,2.3994,2.3982,2.3994,2.3999,2.3969,2.3967,2.3952,2.3944,2.3953,2.3908,2.3917,2.3935,2.3963,2.3914,2.3895,2.3888,2.3989,2.399,2.3991,2.3991,0,0,2.3974,2.3978,2.397,2.3968,2.3966,2.3952,2.3928,2.3915,2.3906,2.3898,2.3879,2.3854,2.3872,2.3864,2.3874,2.3855,2.3809,2.3876,2.3876,2.3864,2.376,2.3747,2.3738,2.382,2.3818,2.3817,2.3761,0,2.3914,2.3875,2.389,2.3849,2.3833,2.3859,2.3838,2.3835,2.3839,2.3825,2.3829,2.3812,2.3836,2.3832,2.3815,2.3818,2.3789,2.3823,2.3802,2.3801,2.3803,2.3729,2.3714,2.3661,2.3754,2.3753,2.3752,0,2.3838,2.3831,2.3789,2.3793,2.3786,2.3768,2.3759,2.3745,2.3742,2.3747,2.374,2.3755,2.3732,2.376,2.3729,2.3752,2.3744,2.3745,2.3743,2.3741,2.3773,2.3725,2.3645,2.3637,2.3741,2.3742,2.3743,0,2.3777,2.3756,2.3729,2.3727,2.373,2.3716,2.3717,2.3716,2.3708,2.37,2.3696,2.3684,2.3678,2.3668,2.3679,2.3699,2.3647,2.3676,2.365,2.365,2.3637,2.3638,2.3554,2.3632,2.3632,2.3632,2.3632,0,2.3708,2.3681,2.3702,2.3686,2.3658,2.3675,2.3646,2.365,2.3649,2.3633,2.3654,2.3639,2.3654,2.364,2.3649,2.3622,2.3619,2.3622,2.3625,2.362,2.362,2.3615,2.3619,2.363,2.363,2.3631,2.3631,0,2.3634,2.3647,2.362,2.3626,2.3628,2.3607,2.3612,2.3597,2.3604,2.3584,2.358,2.3591,2.3576,2.3586,2.357,2.3576,2.3542,2.3549,2.3543,2.3546,2.3519,2.3522,2.343,2.3419,2.3503,2.3502,2.3502,0,2.3589,2.357,2.3576,2.3568,2.3568,2.3554,2.3548,2.3565,2.3557,2.3554,2.3539,2.3527,2.3517,2.3492,2.3498,2.3486,2.3494,2.3463,2.3492,2.3489,2.3494,2.3496,2.3494,2.3456,2.3455,2.3455,2.3454,0,2.3509,2.3517,2.3507,2.3501,2.3493,2.3487,2.3484,2.3476,2.3493,2.3483,2.347,2.3463,2.3449,2.3436,2.3427,2.3427,2.3443,2.3445,2.3439,2.3434,2.3432,2.3434,2.3528,2.3447,2.3447,2.3448,2.3448,2.3449,2.3449,2.3434,2.3437,2.3426,2.3426,2.3422,2.3409,2.3416,2.3405,2.3397,2.3407,2.339,2.339,2.338,2.3379,2.3366,2.3378,2.3369,2.3366,2.3364,2.336,2.3434,2.3364,2.3364,2.3364,2.3365,2.3365,0,2.337,2.3374,2.3364,2.336,2.3352,2.337,2.3368,2.3359,2.3345,2.3344,2.3336,2.3321,2.3309,2.3315,2.3305,2.3294,2.3301,2.3291,2.3292,2.3292,2.3349,2.3356,2.3285,2.3285,2.3285,2.3285,2.3285,2.3285,2.3328,2.3305,2.3314,2.3291,2.3294,2.328,2.3277,2.3275,2.3274,2.3257,2.3249,2.3254,2.3256,2.3247,2.3237,2.3239,2.3235,2.3222,2.3226,2.328,2.3287,2.3295,2.3302,2.322,2.322,2.317,2.317,2.3169]}]]